GW5564 Weather Reports


time (UTC)temp
C
wind
direction
speed
KPH
gust
KPH
rain 1hr
cm
rain 24hr
cm
rain mn
cm
humidity
%
barometer
mb
20260504214718 11 83 3.2 9.7 0.00 0.00 0.00 43 1015.5
20260504214215 10 345 6.4 12.9 0.00 0.00 0.00 45 1015.6
20260504213712 11 18 6.4 17.7 0.00 0.00 0.00 42 1015.5
20260504213208 12 7 4.8 12.9 0.00 0.00 0.00 42 1015.9
20260504212705 11 355 6.4 11.3 0.00 0.00 0.00 44 1016.0
20260504212202 11 313 3.2 17.7 0.00 0.00 0.00 46 1015.8
20260504211659 11 243 6.4 11.3 0.00 0.00 0.00 46 1015.8
20260504211155 11 155 4.8 9.7 0.00 0.00 0.00 45 1016.0
20260504210653 11 347 3.2 14.5 0.00 0.00 0.00 44 1016.2
20260504210149 11 208 9.7 14.5 0.00 0.00 0.00 47 1016.0
20260504205647 11 203 9.7 17.7 0.00 0.00 0.00 44 1015.9
20260504205144 11 84 3.2 9.7 0.00 0.00 0.00 45 1016.0
20260504204643 10 170 4.8 9.7 0.00 0.00 0.00 46 1016.2
20260504204141 10 357 1.6 6.4 0.00 0.00 0.00 46 1016.4
20260504203639 9 114 4.8 9.7 0.00 0.00 0.00 49 1016.0
20260504203137 9 247 6.4 14.5 0.00 0.00 0.00 50 1016.4
20260504202637 9 230 6.4 16.1 0.00 0.00 0.00 51 1016.4
20260504202134 9 206 9.7 16.1 0.00 0.00 0.00 50 1016.7
20260504201631 9 219 11.3 17.7 0.00 0.00 0.00 52 1016.4
20260504201129 9 234 9.7 17.7 0.00 0.00 0.00 51 1016.6
20260504200626 10 208 11.3 16.1 0.00 0.00 0.00 51 1016.7
20260504200122 9 242 6.4 14.5 0.00 0.00 0.00 49 1016.4
20260504195618 8 145 8.0 11.3 0.00 0.00 0.00 49 1016.4
20260504195114 8 187 12.9 17.7 0.00 0.00 0.00 53 1016.7
20260504194611 7 190 9.7 14.5 0.00 0.00 0.00 54 1016.6
20260504194107 7 175 9.7 22.5 0.00 0.00 0.00 57 1016.6
20260504193603 7 184 16.1 24.1 0.00 0.00 0.00 57 1016.8
20260504193102 8 185 12.9 22.5 0.00 0.00 0.00 53 1016.8
20260504192600 8 185 16.1 22.5 0.00 0.00 0.00 55 1016.6
20260504192058 9 185 14.5 20.9 0.00 0.00 0.00 52 1016.8
20260504191556 8 204 14.5 20.9 0.00 0.00 0.00 49 1016.7
20260504191051 8 220 4.8 12.9 0.00 0.00 0.00 49 1016.4
20260504190548 8 267 6.4 11.3 0.00 0.00 0.00 49 1016.7
20260504190044 8 207 6.4 9.7 0.00 0.00 0.00 48 1016.7
20260504185541 8 221 8.0 16.1 0.00 0.00 0.00 50 1016.8
20260504185038 8 285 9.7 14.5 0.00 0.00 0.00 49 1016.9
20260504184533 8 230 8.0 11.3 0.00 0.00 0.00 49 1016.8
20260504184029 8 225 3.2 9.7 0.00 0.00 0.00 50 1016.8
20260504183526 9 266 11.3 12.9 0.00 0.00 0.00 48 1016.9
20260504183024 10 265 6.4 9.7 0.00 0.00 0.00 47 1016.8
20260504182521 10 262 4.8 11.3 0.00 0.00 0.00 47 1017.1
20260504182018 10 187 4.8 9.7 0.00 0.00 0.00 48 1017.2
20260504181515 9 293 6.4 12.9 0.00 0.00 0.00 50 1017.2
20260504181014 8 260 4.8 11.3 0.00 0.00 0.00 53 1017.1
20260504180512 8 257 6.4 14.5 0.00 0.00 0.00 53 1016.9
20260504180010 8 236 8.0 12.9 0.00 0.00 0.00 52 1017.1
20260504175507 8 150 3.2 6.4 0.00 0.00 0.00 52 1017.2
20260504175004 8 115 4.8 11.3 0.00 0.00 0.00 52 1016.9
20260504174502 9 236 4.8 20.9 0.00 0.00 0.00 52 1017.2
20260504173959 9 261 8.0 16.1 0.00 0.00 0.00 51 1017.1
20260504173455 10 59 3.2 14.5 0.00 0.00 0.00 49 1017.3
20260504172953 10 216 6.4 9.7 0.00 0.00 0.00 46 1017.1
20260504172448 10 221 3.2 6.4 0.00 0.00 0.00 46 1017.2
20260504171945 10 171 8.0 11.3 0.00 0.00 0.00 45 1017.2
20260504171443 11 228 4.8 12.9 0.00 0.00 0.00 44 1017.3
20260504170939 11 192 3.2 6.4 0.00 0.00 0.00 47 1017.3
20260504170436 10 111 1.6 4.8 0.00 0.00 0.00 47 1017.2
20260504160355 7 203 9.7 11.3 0.00 0.00 0.00 55 1017.1
20260504150820 8 206 8.0 14.5 0.00 0.00 0.00 52 1017.9
20260504150316 8 180 8.0 12.9 0.00 0.00 0.00 52 1018.0
20260504141246 5 191 6.4 11.3 0.00 0.00 0.00 60 1017.9
20260504140742 5 193 6.4 9.7 0.00 0.00 0.00 60 1017.6
20260504140238 5 210 6.4 9.7 0.00 0.00 0.00 60 1017.6
20260504130707 4 204 3.2 4.8 0.00 0.00 0.00 69 1017.7
20260504130203 4 209 4.8 4.8 0.00 0.00 0.00 69 1017.5
20260504120127 3 221 9.7 12.9 0.00 0.00 0.00 71 1017.3
20260504110554 3 212 9.7 12.9 0.00 0.00 0.00 73 1017.6
20260504100516 5 208 12.9 17.7 0.00 0.00 0.00 67 1017.6
20260504081909 5 192 9.7 12.9 0.00 0.00 0.00 57 1017.6
20260504081406 6 185 6.4 16.1 0.00 0.00 0.00 57 1017.7
20260504080902 5 154 9.7 14.5 0.00 0.00 0.00 57 1018.0
20260504080359 5 165 6.4 14.5 0.00 0.00 0.00 57 1018.1
20260504070326 6 196 14.5 17.7 0.00 0.00 0.00 45 1018.0
20260504060247 8 204 3.2 3.2 0.00 0.00 0.00 33 1018.4
20260504050715 7 153 3.2 3.2 0.00 0.00 0.00 36 1018.8
20260504050212 7 143 1.6 4.8 0.00 0.00 0.00 36 1018.9
20260504045709 7 171 3.2 4.8 0.00 0.00 0.00 35 1018.8
20260504045209 7 162 3.2 3.2 0.00 0.00 0.00 35 1018.9
20260504044708 8 169 3.2 4.8 0.00 0.00 0.00 35 1018.8
20260504044204 8 148 3.2 4.8 0.00 0.00 0.00 34 1018.8
20260504043701 8 122 1.6 3.2 0.00 0.00 0.00 34 1019.0
20260504043158 8 111 1.6 3.2 0.00 0.00 0.00 34 1019.0
20260504042655 8 97 0.0 3.2 0.00 0.00 0.00 33 1019.0
20260504042152 8 140 1.6 1.6 0.00 0.00 0.00 33 1018.9
20260504041648 8 192 1.6 3.2 0.00 0.00 0.00 33 1018.9
20260504041144 8 169 1.6 3.2 0.00 0.00 0.00 33 1019.0
20260504040641 8 153 1.6 1.6 0.00 0.00 0.00 33 1019.2
20260504040138 8 161 1.6 1.6 0.00 0.00 0.00 34 1019.3
20260504035635 8 159 1.6 1.6 0.00 0.00 0.00 34 1019.2
20260504035131 8 154 1.6 3.2 0.00 0.00 0.00 34 1019.0
20260504034629 8 146 1.6 3.2 0.00 0.00 0.00 34 1019.0
20260504034126 8 148 1.6 3.2 0.00 0.00 0.00 34 1019.3
20260504033624 8 119 1.6 3.2 0.00 0.00 0.00 34 1019.2
20260504033121 8 156 3.2 3.2 0.00 0.00 0.00 35 1019.3
20260504032618 8 166 3.2 3.2 0.00 0.00 0.00 35 1019.2
20260504032115 8 185 3.2 3.2 0.00 0.00 0.00 34 1019.2
20260504031612 8 172 3.2 3.2 0.00 0.00 0.00 34 1019.2
20260504031108 8 161 1.6 3.2 0.00 0.00 0.00 34 1019.3
20260504030605 8 159 1.6 1.6 0.00 0.00 0.00 35 1019.2
20260504030101 8 116 0.0 1.6 0.00 0.00 0.00 34 1019.3
20260504025558 8 121 0.0 1.6 0.00 0.00 0.00 33 1019.0
20260504025055 9 153 0.0 0.0 0.00 0.00 0.00 32 1019.2
20260504024552 9 219 3.2 11.3 0.00 0.00 0.00 32 1019.4
20260504024049 9 92 0.0 0.0 0.00 0.00 0.00 33 1019.3
20260504023546 9 10 3.2 9.7 0.00 0.00 0.00 32 1019.3
20260504023042 9 337 1.6 3.2 0.00 0.00 0.00 33 1019.6
20260504022537 9 189 3.2 4.8 0.00 0.00 0.00 32 1019.3
20260504022034 10 141 1.6 3.2 0.00 0.00 0.00 32 1019.7
20260504021532 10 157 0.0 3.2 0.00 0.00 0.00 32 1019.4
20260504021028 10 46 1.6 14.5 0.00 0.00 0.00 33 1019.6
20260504020525 10 181 6.4 9.7 0.00 0.00 0.00 32 1019.3
20260504020022 10 112 0.0 3.2 0.00 0.00 0.00 32 1019.4
20260504015518 10 129 6.4 9.7 0.00 0.00 0.00 32 1019.2
20260504015014 10 105 4.8 9.7 0.00 0.00 0.00 32 1019.6
20260504014510 10 185 6.4 9.7 0.00 0.00 0.00 30 1019.2
20260504014008 10 174 8.0 14.5 0.00 0.00 0.00 30 1019.2
20260504013506 10 237 12.9 16.1 0.00 0.00 0.00 29 1019.2
20260504013001 10 130 1.6 1.6 0.00 0.00 0.00 27 1019.2
20260504012500 10 234 3.2 4.8 0.00 0.00 0.00 29 1019.4
20260504011957 10 110 1.6 3.2 0.00 0.00 0.00 31 1019.2
20260504011454 10 24 0.0 3.2 0.00 0.00 0.00 30 1019.0
20260504010949 11 68 0.0 1.6 0.00 0.00 0.00 31 1019.2
20260504010446 11 29 3.2 3.2 0.00 0.00 0.00 29 1018.9
20260504005942 11 16 1.6 3.2 0.00 0.00 0.00 29 1019.3
20260504005439 11 355 4.8 4.8 0.00 0.00 0.00 28 1019.6
20260504004936 11 325 1.6 4.8 0.00 0.00 0.00 28 1019.4
20260504004434 11 93 0.0 1.6 0.00 0.00 0.00 28 1019.3
20260504003931 11 46 1.6 4.8 0.00 0.00 0.00 28 1019.4
20260504003427 12 48 3.2 4.8 0.00 0.00 0.00 26 1019.6
20260504002924 12 89 0.0 3.2 0.00 0.00 0.00 25 1019.4
20260504002420 12 70 0.0 1.6 0.00 0.00 0.00 26 1019.4
20260504001918 12 175 0.0 3.2 0.00 0.00 0.00 27 1019.6
20260504001416 12 71 1.6 3.2 0.00 0.00 0.00 27 1019.4
20260504000912 12 30 1.6 4.8 0.00 0.00 0.00 27 1019.7
20260504000409 12 200 4.8 9.7 0.00 0.00 0.00 26 1019.7
20260503235906 12 34 1.6 6.4 0.00 0.00 0.00 26 1019.4
20260503235404 12 143 3.2 4.8 0.00 0.00 0.00 26 1019.7
20260503234901 12 234 6.4 11.3 0.00 0.00 0.00 27 1019.8
20260503234359 12 200 9.7 22.5 0.00 0.00 0.00 26 1019.8
20260503233856 12 198 6.4 16.1 0.00 0.00 0.00 26 1019.7
20260503233353 12 196 6.4 11.3 0.00 0.00 0.00 28 1019.8
20260503232849 12 149 1.6 6.4 0.00 0.00 0.00 27 1019.8
20260503232347 12 190 6.4 6.4 0.00 0.00 0.00 27 1019.8
20260503231844 12 172 6.4 9.7 0.00 0.00 0.00 26 1019.8
20260503231341 12 179 12.9 16.1 0.00 0.00 0.00 25 1019.7
20260503230837 12 34 4.8 17.7 0.00 0.00 0.00 25 1019.7
20260503230334 12 4 11.3 14.5 0.00 0.00 0.00 24 1019.7
20260503225832 12 27 3.2 4.8 0.00 0.00 0.00 24 1019.9
20260503225328 12 207 3.2 4.8 0.00 0.00 0.00 23 1019.9
20260503224824 12 119 1.6 3.2 0.00 0.00 0.00 23 1019.8
20260503224321 12 93 0.0 4.8 0.00 0.00 0.00 24 1020.1
20260503223819 12 309 4.8 11.3 0.00 0.00 0.00 24 1019.8
20260503223317 12 336 6.4 6.4 0.00 0.00 0.00 24 1019.8
20260503222812 12 326 6.4 11.3 0.00 0.00 0.00 24 1019.8
20260503222311 12 47 1.6 4.8 0.00 0.00 0.00 24 1020.1
20260503221809 13 158 3.2 12.9 0.00 0.00 0.00 24 1020.1
20260503221307 13 262 9.7 11.3 0.00 0.00 0.00 23 1019.8
20260503220802 13 206 1.6 4.8 0.00 0.00 0.00 23 1020.5
20260503220300 13 288 4.8 6.4 0.00 0.00 0.00 23 1020.3
20260503215756 13 207 0.0 3.2 0.00 0.00 0.00 23 1020.3
20260503215253 13 244 3.2 3.2 0.00 0.00 0.00 21 1020.5